Regional Weather Roundup
Issued by NWS Jackson, KY

Home | Current Version | Previous Version | Text Only | Print | Product List | Glossary On
Versions: 1 2 3 4 5 6 7 8 9 10 11 12 13 14 15 16 17 18 19 20 21 22 23 24 25 26 27 28 29 30 31 32 33 34 35 36 37 38 39 40 41 42 43 44 45 46 47 48 49 50
000
ASUS43 KJKL 261910
RWRJKL

EAST KENTUCKY HOURLY WEATHER ROUNDUP
NATIONAL WEATHER SERVICE JACKSON KY
300 PM EDT THU APR 26 2018

NOTE: "FAIR" INDICATES FEW OR NO CLOUDS BELOW 12,000 FEET WITH
NO SIGNIFICANT WEATHER AND/OR OBSTRUCTIONS TO VISIBILITY.

* THESE REPORTS ARE NOT UNDER NWS QUALITY CONTROL AND MAY NOT
  REPORT WEATHER SUCH AS PRECIPITATION AND FOG.

KYZ079-080-083-085-087-088-110-112-115-119-120-262000
...EASTERN KENTUCKY...

CITY           SKY/WX    TMP DP  RH WIND       PRES   REMARKS
JACKSON          N/A     62  43  49 CALM      29.87F
LONDON         PTSUNNY   60  48  64 CALM      29.87F
SOMERSET*        N/A     61  45  55 S5        29.89F
WILLIAMSBURG*    N/A     59  50  72 S6        29.88F
MIDDLESBORO*   CLOUDY    58  48  68 S5        29.90F
HARLAN APT*    CLOUDY    59  43  56 CALM      29.89F
PIKE CO APT*     N/A     60  44  54 E3        29.89F
BIG SANDY APT*   N/A     62  45  52 SE3       29.89F
MOREHEAD APT*  CLOUDY    64  45  48 VRB5      29.88F
ASHLAND*         N/A     66  46  48 VRB3      29.87F
$$

KYZ035-036-041-042-044-050-067-078-099-262000
...CENTRAL KENTUCKY...

CITY           SKY/WX    TMP DP  RH WIND       PRES   REMARKS
MT STERLING*     N/A     64  46  52 NW3       29.89F
FLEMING/MASON*   N/A     64  44  47 SW3       29.88F
DANVILLE*      PTSUNNY   63  50  63 CALM      29.87F
LEXINGTON        N/A     66  47  50 W7        29.87F
FRANKFORT        N/A     65  41  41 S5        29.86F
LOUISVILLE     CLOUDY    66  37  34 CALM      29.86F
LEBANON*         N/A     63  50  63 CALM      29.87F
GLASGOW*         N/A     61  51  70 CALM      29.86F
BOWLING GREEN  PTSUNNY   63  52  67 CALM      29.86F
$$

KYZ091>093-OHZ055-061-077-WVZ005-015-034-035-042-262000
...SOUTHERN OHIO/WEST VIRGINIA...

CITY           SKY/WX    TMP DP  RH WIND       PRES   REMARKS
COVINGTON      PTSUNNY   66  32  28 W8        29.86F
COLUMBUS       PTSUNNY   63  40  42 S7        29.88F
DAYTON           N/A     63  41  44 NE3       29.88F
WILMINGTON       N/A     76  43  30 VRB3      29.86F
HUNTINGTON       N/A     64  43  46 CALM      29.87F
CHARLESTON     PTSUNNY   66  44  45 VRB3      29.88F
PINEVILLE*       N/A     64  39  41 MISG      29.92F
BECKLEY          N/A     59  35  40 CALM      29.89F
BLUEFIELD      PTSUNNY   59  37  44 VRB5      29.89F
LOGAN CO APT*    N/A     61  39  44 CALM      29.88F
$$

VAZ002-007-008-TNZ017-027-036-066-071-262000
...SOUTHWEST VIRGINIA/EAST TENNESSEE...

CITY           SKY/WX    TMP DP  RH WIND       PRES   REMARKS
WISE*          CLOUDY    55  43  62 N5        29.91S
JONESVILLE*      N/A     61  41  48 CALM      29.91F
ABINGDON*      CLOUDY    63  43  48 NW3       29.87F
BRISTOL        CLOUDY    62  47  57 W7        29.87F
MORRISTOWN*    CLOUDY    55  48  76 CALM      29.90S HAZE
SEVIERVILLE*   PTCLDY    57  52  82 CALM      29.90F HAZE
KNOXVILLE      LGT RAIN  56  52  86 SE3       29.89F
LAFOLLETTE*    MOCLDY    57  50  77 CALM      29.93F
OAK RIDGE      LGT RAIN  58  55  90 CALM      29.90F
CROSSVILLE     LGT RAIN  52  46  80 SE9       29.88F
NASHVILLE      LGT RAIN  59  54  83 VRB3      29.87F
$$

...KEY TO REMARKS...
VSB - VISIBILITY IN MILES
WCI - WIND CHILL INDEX
HX  - HEAT INDEX

$$



USA.gov is the U.S. government's official web portal to all federal, state and local government web resources and services.